User: anonymous   Login
Location: Caltech
(34.1382°N, 118.1253°W)
Time: 12:37:45
(UTC-08:00)
Language:

Cosmos 2237 Rocket - Orbit

View from above orbital plane
View from above orbital plane
View from above satellite
View from above satellite

Ground track
Ground track

The orbit data is extracted from the following two-line orbital elements,

1 22566U 93016B   17327.55316871 -.00000185  00000-0 -70996-4 0  9997
2 22566  71.0069  92.4028 0012602 254.2799 105.6934 14.14950250273810
Epoch (UTC): 23 November 2017 13:16:33
Eccentricity: 0.0012602
inclination: 71.0069°
perigee height: 833 km
apogee height: 851 km
right ascension of ascending node: 92.4028°
argument of perigee: 254.2799°
revolutions per day: 14.14950250
mean anomaly at epoch: 105.6934°
orbit number at epoch: 27381

The dashed part of the orbit path shows where the satellite is in the earth's shadow,  

DLR